TimeCDT,TemperatureF,Dew PointF,Humidity,Sea Level PressureIn,VisibilityMPH,Wind Direction,Wind SpeedMPH,Gust SpeedMPH,PrecipitationIn,Events,Conditions,WindDirDegrees,DateUTC
12:56 AM,64.9,62.1,90,29.95,10.0,NNW,5.8,-,N/A,,Overcast,340,2013-10-18 05:56:00
1:56 AM,64.9,61.0,87,29.96,10.0,Calm,Calm,-,N/A,,Overcast,0,2013-10-18 06:56:00
2:56 AM,64.0,61.0,90,29.96,10.0,Calm,Calm,-,N/A,,Overcast,0,2013-10-18 07:56:00
3:56 AM,64.0,61.0,90,29.96,10.0,NW,3.5,-,N/A,,Overcast,320,2013-10-18 08:56:00
4:45 AM,64.4,60.8,88,29.97,10.0,North,4.6,-,N/A,,Overcast,360,2013-10-18 09:45:00
4:56 AM,64.0,61.0,90,29.96,10.0,North,3.5,-,N/A,,Overcast,350,2013-10-18 09:56:00
5:56 AM,64.0,61.0,90,29.97,10.0,North,4.6,-,N/A,,Overcast,350,2013-10-18 10:56:00
6:33 AM,64.4,60.8,88,29.99,10.0,North,4.6,-,N/A,,Overcast,360,2013-10-18 11:33:00
6:56 AM,63.0,61.0,93,29.98,10.0,North,6.9,-,N/A,,Overcast,360,2013-10-18 11:56:00
7:56 AM,64.0,61.0,90,30.00,10.0,North,4.6,-,N/A,,Overcast,360,2013-10-18 12:56:00
8:34 AM,64.4,60.8,88,30.02,10.0,NNE,5.8,-,N/A,,Overcast,20,2013-10-18 13:34:00
8:56 AM,64.9,60.1,84,30.03,10.0,North,5.8,-,N/A,,Overcast,10,2013-10-18 13:56:00
9:26 AM,66.2,59.0,78,30.04,10.0,North,4.6,-,N/A,,Overcast,10,2013-10-18 14:26:00
9:56 AM,66.9,59.0,76,30.02,10.0,North,6.9,-,N/A,,Overcast,350,2013-10-18 14:56:00
10:56 AM,69.1,57.9,68,30.03,10.0,Calm,Calm,-,N/A,,Overcast,0,2013-10-18 15:56:00
11:56 AM,71.1,57.9,63,30.01,10.0,Variable,3.5,-,N/A,,Overcast,0,2013-10-18 16:56:00
12:26 PM,73.4,57.2,57,30.01,10.0,Calm,Calm,-,N/A,,Scattered Clouds,0,2013-10-18 17:26:00
12:38 PM,71.6,57.2,60,30.00,10.0,Variable,4.6,-,N/A,,Mostly Cloudy,0,2013-10-18 17:38:00
12:48 PM,73.4,57.2,57,29.99,10.0,Variable,3.5,-,N/A,,Scattered Clouds,0,2013-10-18 17:48:00
12:56 PM,75.0,57.9,55,29.98,10.0,WNW,5.8,-,N/A,,Scattered Clouds,290,2013-10-18 17:56:00
1:56 PM,75.9,55.9,50,29.96,10.0,North,4.6,-,N/A,,Partly Cloudy,350,2013-10-18 18:56:00
2:56 PM,77.0,55.9,48,29.94,10.0,NE,5.8,-,N/A,,Partly Cloudy,50,2013-10-18 19:56:00
3:56 PM,75.0,57.0,53,29.94,10.0,NNW,6.9,-,N/A,,Clear,340,2013-10-18 20:56:00
4:56 PM,72.0,57.0,59,29.94,10.0,NNW,5.8,-,N/A,,Clear,340,2013-10-18 21:56:00
5:56 PM,69.1,59.0,70,29.93,10.0,NNE,3.5,-,N/A,,Clear,20,2013-10-18 22:56:00
6:56 PM,68.0,60.1,76,29.93,10.0,Calm,Calm,-,N/A,,Scattered Clouds,0,2013-10-18 23:56:00
7:56 PM,66.0,60.1,81,29.96,10.0,NNW,3.5,-,0.01,Rain,Light Rain,330,2013-10-19 00:56:00
8:56 PM,64.9,61.0,87,29.97,10.0,Calm,Calm,-,0.01,Rain,Light Rain,0,2013-10-19 01:56:00
9:56 PM,63.0,61.0,93,29.99,10.0,WNW,3.5,-,0.02,,Scattered Clouds,300,2013-10-19 02:56:00
10:56 PM,63.0,60.1,90,29.99,10.0,NNW,3.5,-,N/A,,Clear,330,2013-10-19 03:56:00
11:56 PM,62.1,59.0,90,29.97,10.0,Calm,Calm,-,N/A,,Clear,0,2013-10-19 04:56:00